Location: Alphen
(52.1351°N, 4.6549°E)
Time: 00:51:16
(UTC+00:00)

Cosmos 1980 Rocket - Pass Details

Date: 27 January 2021
Orbit: 827 x 851 km, 71.0° (Epoch: 27 February)

Event Time Altitude Azimuth Distance (km) Brightness Sun altitude
Exits shadow 04:30:29 12° 348° (NNW) 2,334 4.4 -27.2°
Maximum altitude 04:30:34 12° 349° (N) 2,334 4.4 -27.2°
Drops below altitude 10° 04:32:42 10° 12° (NNE) 2,480 4.8 -26.9°
Sets 04:37:01 0° 42° (NE) 3,422 6.0 -26.2°
